Regional Weather Roundup
Issued by NWS Columbia, SC

Home | Current Version | Previous Version | Text Only | Print | Product List | Glossary On
Versions: 1 2 3 4 5 6 7 8 9 10 11 12 13 14 15 16 17 18 19 20 21 22 23 24 25 26 27 28 29 30 31 32 33 34 35 36 37 38 39 40 41 42 43 44 45 46 47 48 49 50
000
ASUS42 KCAE 240710
RWRCAE
REGIONAL WEATHER ROUNDUP
NATIONAL WEATHER SERVICE COLUMBIA SC
200 AM EST MON NOV 24 2014

NOTE: "FAIR" INDICATES FEW OR NO CLOUDS BELOW 12,000 FEET WITH NO
SIGNIFICANT WEATHER AND/OR OBSTRUCTIONS TO VISIBILITY.

NOT ALL STATIONS ARE QUALITY CONTROLLED BY THE NATIONAL
WEATHER SERVICE. USE DATA WITH CAUTION...ESPECIALLY
DEWPOINT OBSERVATIONS.

SCZ001>056-GAZ040-063>065-077-240800-
...UPSTATE SOUTH CAROLINA...

CITY           SKY/WX    TMP DP  RH WIND       PRES   REMARKS
ANDERSON       CLOUDY    57  56  96 SW14      29.77R
LIBERTY        CLOUDY    55  55 100 MISG      29.75R FOG
SPARTANBURG    CLOUDY    61 N/A N/A SW9       29.74R
CLEMSON        CLOUDY    57  54  89 MISG      29.77R
GREENVILLE     CLOUDY    58  55  90 SW10      29.75R
GREENWOOD      CLOUDY    61  58  90 SW12      29.80R
GREER          CLOUDY    58  56  93 SW12G21   29.73R
ROCK HILL      CLOUDY    62  58  86 SW13G20   29.75S
CHESTER        CLOUDY    63  61  94 SW6       29.77R
LAURENS        CLOUDY   N/A N/A N/A SW13      29.76S


...CENTRAL SOUTH CAROLINA...

CITY           SKY/WX    TMP DP  RH WIND       PRES   REMARKS
COLUMBIA APT   CLOUDY    67  62  84 SW10      29.78R
COLUMBIA OWENS CLOUDY    68  62  81 SW13      29.79R
DARLINGTON     PTCLDY    64  61  88 SW9       29.79R
FLORENCE       MOCLDY    64  62  93 S7        29.79R
MCENTIRE ANGB  MOCLDY    68  64  88 SW12      29.79R
ORANGEBURG     CLOUDY    68  64  87 SW12      29.80R
SUMTER SHAW    CLOUDY    66  64  94 SW16G24   29.77R
NEWBERRY       PTSUNNY   61 N/A N/A SW14G23   29.80S
AIKEN          CLOUDY    64  64 100 SW12G17   29.82R
BARNWELL       CLOUDY    68  66  94 SW7       29.81R
CAMDEN         CLOUDY    64  63  94 SW13      29.79R
LANCASTER      LGT RAIN  63  63 100 SW8       29.77R
WINNSBORO      CLOUDY    63  61  94 SW8       29.78R


...EASTERN AND COASTAL SOUTH CAROLINA...

CITY           SKY/WX    TMP DP  RH WIND       PRES   REMARKS
MYRTLE BEACH   MOCLDY    66  61  82 S9          N/A
N MYRTLE BCH   CLOUDY    63  62  97 S14       29.83R FOG
CONWAY         FAIR      64  64 100 S5        29.82R
FLORENCE       MOCLDY    64  62  93 S7        29.79R
DARLINGTON     PTCLDY    64  61  88 SW9       29.79R
CHARLESTON APT CLOUDY    66  64  93 S12       29.82F
MOUNT PLEASANT CLOUDY    66  66 100 SW8       29.83F
WALTERBORO     PTSUNNY   68 N/A N/A SW7       29.82F
BEAUFORT       CLOUDY    66  65  96 S3        29.84R FOG


...EASTERN GEORGIA...

CITY           SKY/WX    TMP DP  RH WIND       PRES   REMARKS
AUGUSTA BUSH F MOCLDY    66  62  87 SW12      29.80R
AUGUSTA DANIEL MOCLDY    66  62  87 SW9       29.80S
THOMSON        MOCLDY    65  64  96 SW8       29.85R
WASHINGTON     CLOUDY    63  63 100 SW8       29.79R
CLAXTON        CLOUDY    68  68 100 CALM      29.83R
SYLVANIA       CLOUDY    66  65  97 SW3       29.83R
STATESBORO     CLOUDY    66  66 100 S6        29.83R
SAVANNAH       CLOUDY    68  65  90 S3        29.84R


...SOUTHERN NORTH CAROLINA...

CITY           SKY/WX    TMP DP  RH WIND       PRES   REMARKS
CHARLOTTE      PTCLDY    61  55  81 SW10G18   29.74R
MONROE         CLOUDY    63  58  83 SW17G29   29.75R
WADESBORO      PTSUNNY   65  61  86 S10       29.76R
ROCKINGHAM     CLOUDY    63  61  94 SW12      29.77R
RUTHERFORDTON  CLOUDY    55  55  99 SW9G17    29.73R
ASHEVILLE      CLEAR     54  50  86 S17G25    29.71S

$$



USA.gov is the U.S. government's official web portal to all federal, state and local government web resources and services.